JBU783 KBOS-KRDU

Flight info

Callsign JBU783
Flight time N/A
Altitude 34000
Route SSOXS7 SSOXS Q167 ZJAAY TAQLE3
Aircraft A321/M-SDE3/2105

Departure

Time 2026-05-07 00:04
Airport Boston Logan International Airport (KBOS)

Arrival

Time N/A
Airport Raleigh-Durham International Airport (KRDU)
Time Latitude Longitude Altitude Speed Heading
2026-05-06 23:23 42.36795 -71.01569 15 ft 0 kts 132°
2026-05-06 23:24 42.36863 -71.01598 15 ft 0 kts 152°
2026-05-06 23:24 42.36835 -71.01467 15 ft 0 kts 249°
2026-05-06 23:44 42.36839 -71.01453 15 ft 2 kts 248°
2026-05-06 23:44 42.36843 -71.01438 15 ft 2 kts 249°
2026-05-06 23:44 42.36848 -71.01421 15 ft 2 kts 249°
2026-05-06 23:45 42.36853 -71.01404 15 ft 2 kts 248°
2026-05-06 23:45 42.36857 -71.01387 15 ft 2 kts 268°
2026-05-06 23:45 42.36856 -71.01370 15 ft 2 kts 283°
2026-05-06 23:45 42.36851 -71.01353 15 ft 2 kts 301°
2026-05-06 23:46 42.36842 -71.01337 15 ft 2 kts 319°
2026-05-06 23:46 42.36831 -71.01324 15 ft 2 kts 316°
2026-05-06 23:46 42.36821 -71.01311 15 ft 1 kts 316°
2026-05-06 23:46 42.36813 -71.01300 15 ft 1 kts 317°
2026-05-06 23:47 42.36809 -71.01297 15 ft 0 kts 317°
2026-05-06 23:50 42.36810 -71.01297 15 ft 0 kts 317°
2026-05-06 23:50 42.36828 -71.01320 15 ft 8 kts 316°
2026-05-06 23:51 42.36899 -71.01415 15 ft 18 kts 315°
2026-05-06 23:51 42.36998 -71.01553 15 ft 19 kts 315°
2026-05-06 23:51 42.37088 -71.01675 15 ft 9 kts 318°
2026-05-06 23:51 42.37134 -71.01690 15 ft 0 kts 17°
2026-05-06 23:52 42.37134 -71.01689 15 ft 0 kts 17°
2026-05-06 23:52 42.37156 -71.01664 15 ft 8 kts 45°
2026-05-06 23:52 42.37204 -71.01594 14 ft 0 kts 52°
2026-05-06 23:53 42.37220 -71.01565 13 ft 11 kts 62°
2026-05-06 23:53 42.37161 -71.01431 13 ft 21 kts 135°
2026-05-06 23:53 42.37065 -71.01304 14 ft 12 kts 135°
2026-05-06 23:53 42.37053 -71.01287 14 ft 0 kts 135°
2026-05-06 23:54 42.37052 -71.01286 14 ft 0 kts 135°
2026-05-06 23:54 42.37049 -71.01282 14 ft 0 kts 135°
2026-05-06 23:54 42.37048 -71.01280 15 ft 0 kts 135°
2026-05-06 23:55 42.37045 -71.01276 15 ft 3 kts 135°
2026-05-06 23:56 42.37013 -71.01233 15 ft 6 kts 135°
2026-05-06 23:56 42.36978 -71.01186 15 ft 8 kts 135°
2026-05-06 23:56 42.36997 -71.01105 15 ft 12 kts 30°
2026-05-06 23:56 42.37090 -71.01042 13 ft 15 kts 26°
2026-05-06 23:57 42.37173 -71.00987 12 ft 15 kts 26°
2026-05-06 23:57 42.37204 -71.00967 12 ft 0 kts 26°
2026-05-06 23:58 42.37206 -71.00966 12 ft 0 kts 26°
2026-05-06 23:58 42.37220 -71.00957 12 ft 6 kts 25°
2026-05-06 23:58 42.37264 -71.00929 12 ft 6 kts 26°
2026-05-06 23:59 42.37324 -71.00893 12 ft 12 kts 20°
2026-05-06 23:59 42.37411 -71.00851 12 ft 11 kts 19°
2026-05-06 23:59 42.37492 -71.00812 12 ft 14 kts 20°
2026-05-06 23:59 42.37582 -71.00769 12 ft 13 kts 20°
2026-05-07 00:00 42.37672 -71.00725 12 ft 13 kts 20°
2026-05-07 00:00 42.37761 -71.00682 12 ft 14 kts 19°
2026-05-07 00:00 42.37834 -71.00634 12 ft 6 kts 51°
2026-05-07 00:00 42.37839 -71.00588 12 ft 4 kts 87°
2026-05-07 00:01 42.37836 -71.00568 12 ft 0 kts 109°
2026-05-07 00:01 42.37835 -71.00563 12 ft 3 kts 109°
2026-05-07 00:01 42.37816 -71.00495 12 ft 9 kts 115°
2026-05-07 00:01 42.37767 -71.00482 12 ft 5 kts 197°
2026-05-07 00:02 42.37745 -71.00493 12 ft 0 kts 200°
2026-05-07 00:03 42.37563 -71.00580 12 ft 64 kts 200°
2026-05-07 00:04 42.36926 -71.00886 16 ft 128 kts 199°
2026-05-07 00:04 42.35940 -71.01357 218 ft 161 kts 199°
2026-05-07 00:04 42.34861 -71.01840 775 ft 170 kts 193°
2026-05-07 00:04 42.33698 -71.01672 1447 ft 182 kts 160°
2026-05-07 00:05 42.32825 -71.00341 2082 ft 205 kts 120°
2026-05-07 00:05 42.32543 -70.98401 2469 ft 218 kts 106°
2026-05-07 00:05 42.32055 -70.96489 2736 ft 217 kts 130°
2026-05-07 00:05 42.31212 -70.94775 3084 ft 231 kts 123°
2026-05-07 00:06 42.30870 -70.92541 3348 ft 260 kts 89°
2026-05-07 00:06 42.31314 -70.90095 3716 ft 276 kts 70°
2026-05-07 00:06 42.31975 -70.87626 4295 ft 281 kts 72°
2026-05-07 00:06 42.32546 -70.85118 4897 ft 284 kts 76°
2026-05-07 00:07 42.33020 -70.82455 5323 ft 299 kts 80°
2026-05-07 00:07 42.33117 -70.79678 5866 ft 302 kts 104°
2026-05-07 00:07 42.32445 -70.77045 6678 ft 295 kts 119°
2026-05-07 00:07 42.31550 -70.74534 7389 ft 298 kts 122°
2026-05-07 00:08 42.30623 -70.72007 8103 ft 303 kts 122°
2026-05-07 00:08 42.29646 -70.69504 8782 ft 302 kts 132°
2026-05-07 00:08 42.28123 -70.67714 9470 ft 286 kts 161°
2026-05-07 00:08 42.26255 -70.66805 9946 ft 291 kts 170°
2026-05-07 00:09 42.24277 -70.65984 10264 ft 308 kts 170°
2026-05-07 00:09 42.22162 -70.65080 10564 ft 326 kts 169°
2026-05-07 00:09 42.19974 -70.64107 10869 ft 342 kts 168°
2026-05-07 00:09 42.17676 -70.63065 11191 ft 355 kts 168°
2026-05-07 00:10 42.15295 -70.62178 11789 ft 352 kts 178°
2026-05-07 00:10 42.12916 -70.62111 12762 ft 334 kts 191°
2026-05-07 00:10 42.10705 -70.62750 13583 ft 324 kts 201°
2026-05-07 00:10 42.08584 -70.63660 14213 ft 326 kts 202°
2026-05-07 00:11 42.06415 -70.64625 14762 ft 330 kts 203°
2026-05-07 00:11 42.04233 -70.65596 15304 ft 334 kts 203°
2026-05-07 00:11 42.02004 -70.66584 15875 ft 337 kts 203°
2026-05-07 00:11 42.00172 -70.67394 16311 ft 339 kts 202°
2026-05-07 00:12 41.97927 -70.68380 16827 ft 343 kts 203°
2026-05-07 00:12 41.95671 -70.69373 17325 ft 346 kts 202°